| time (UTC) | temp F | wind direction | speed MPH | gust MPH | rain 1hr in | rain 24hr in | rain mn in | humidity % | barometer mb |
| 20260503232005 | 52 | 288 | 0.0 | 7.0 | 0.00 | 0.00 | 0.00 | 92 | 1012.1 |
| 20260503231005 | 52 | 295 | 2.0 | 7.0 | 0.00 | 0.00 | 0.00 | 92 | 1012.2 |
| 20260503230005 | 52 | 316 | 0.0 | 3.0 | 0.00 | 0.00 | 0.00 | 92 | 1012.1 |
| 20260503224005 | 52 | 297 | 1.0 | 3.0 | 0.00 | 0.00 | 0.00 | 92 | 1011.9 |
| 20260503223004 | 52 | 286 | 1.0 | 8.0 | 0.00 | 0.00 | 0.00 | 92 | 1011.9 |
| 20260503222005 | 52 | 296 | 1.0 | 8.0 | 0.00 | 0.00 | 0.00 | 92 | 1012.0 |
| 20260503221005 | 52 | 299 | 1.0 | 6.0 | 0.00 | 0.00 | 0.00 | 92 | 1011.9 |
| 20260503220004 | 53 | 273 | 1.0 | 7.0 | 0.00 | 0.00 | 0.00 | 93 | 1011.8 |
| 20260503215004 | 53 | 279 | 1.0 | 3.0 | 0.00 | 0.00 | 0.00 | 93 | 1011.7 |
| 20260503214005 | 52 | 299 | 1.0 | 3.0 | 0.00 | 0.00 | 0.00 | 93 | 1011.7 |
| 20260503213005 | 52 | 253 | 1.0 | 3.0 | 0.00 | 0.00 | 0.00 | 92 | 1011.6 |
| 20260503211004 | 53 | 259 | 1.0 | 6.0 | 0.00 | 0.00 | 0.00 | 92 | 1011.4 |
| 20260503210005 | 53 | 261 | 0.0 | 3.0 | 0.00 | 0.00 | 0.00 | 92 | 1011.3 |
| 20260503205005 | 53 | 302 | 0.0 | 3.0 | 0.00 | 0.00 | 0.00 | 92 | 1011.3 |
| 20260503204004 | 53 | 315 | 0.0 | 5.0 | 0.00 | 0.00 | 0.00 | 92 | 1011.1 |
| 20260503203005 | 53 | 291 | 2.0 | 5.0 | 0.00 | 0.00 | 0.00 | 92 | 1010.9 |
| 20260503202007 | 53 | 289 | 1.0 | 7.0 | 0.00 | 0.00 | 0.00 | 92 | 1010.9 |
| 20260503200004 | 53 | 261 | 2.0 | 5.0 | 0.00 | 0.00 | 0.00 | 92 | 1010.8 |
| 20260503194004 | 53 | 239 | 0.0 | 5.0 | 0.00 | 0.00 | 0.00 | 91 | 1010.6 |
| 20260503193004 | 54 | 227 | 1.0 | 5.0 | 0.00 | 0.00 | 0.00 | 91 | 1010.5 |
| 20260503192004 | 54 | 277 | 0.0 | 3.0 | 0.00 | 0.00 | 0.00 | 90 | 1010.5 |
| 20260503191004 | 54 | 288 | 1.0 | 6.0 | 0.00 | 0.00 | 0.00 | 89 | 1010.4 |
| 20260503190006 | 55 | 292 | 1.0 | 3.0 | 0.00 | 0.00 | 0.00 | 89 | 1010.3 |
| 20260503185004 | 55 | 279 | 1.0 | 6.0 | 0.00 | 0.00 | 0.00 | 88 | 1010.3 |
| 20260503184004 | 55 | 245 | 0.0 | 3.0 | 0.00 | 0.00 | 0.00 | 88 | 1010.1 |
| 20260503183004 | 56 | 264 | 0.0 | 3.0 | 0.00 | 0.00 | 0.00 | 87 | 1010.1 |
| 20260503182005 | 56 | 222 | 1.0 | 3.0 | 0.00 | 0.00 | 0.00 | 85 | 1010.0 |
| 20260503180005 | 58 | 263 | 1.0 | 5.0 | 0.00 | 0.00 | 0.00 | 83 | 1009.9 |
| 20260503174005 | 59 | 229 | 1.0 | 3.0 | 0.00 | 0.00 | 0.00 | 81 | 1009.7 |
| 20260503173004 | 60 | 226 | 1.0 | 5.0 | 0.00 | 0.00 | 0.00 | 79 | 1009.7 |
| 20260503171004 | 62 | 220 | 1.0 | 8.0 | 0.00 | 0.00 | 0.00 | 75 | 1009.7 |
| 20260503151004 | 65 | 241 | 2.0 | 12.0 | 0.00 | 0.00 | 0.00 | 72 | 1010.0 |
| 20260503131006 | 64 | 282 | 2.0 | 7.0 | 0.00 | 0.17 | 0.00 | 74 | 1010.2 |
| 20260503081004 | 55 | 306 | 1.0 | 3.0 | 0.00 | 0.17 | 0.00 | 94 | 1010.2 |
| 20260503071005 | 53 | 226 | 1.0 | 3.0 | 0.00 | 0.17 | 0.00 | 96 | 1010.3 |
| 20260503055005 | 51 | 286 | 0.0 | 3.0 | 0.00 | 0.17 | 0.00 | 96 | 1010.0 |
| 20260503054005 | 51 | 287 | 0.0 | 3.0 | 0.00 | 0.17 | 0.00 | 96 | 1009.9 |
| 20260503052005 | 51 | 288 | 0.0 | 2.0 | 0.00 | 0.17 | 0.00 | 96 | 1009.6 |
| 20260503051007 | 51 | 288 | 1.0 | 3.0 | 0.00 | 0.17 | 0.00 | 96 | 1009.6 |
| 20260503050006 | 51 | 287 | 0.0 | 2.0 | 0.00 | 0.17 | 0.00 | 96 | 1009.5 |
| 20260503045005 | 51 | 287 | 1.0 | 3.0 | 0.00 | 0.17 | 0.00 | 96 | 1009.5 |
| 20260503044005 | 51 | 287 | 1.0 | 2.0 | 0.00 | 0.17 | 0.00 | 96 | 1009.5 |
| 20260503043005 | 52 | 287 | 0.0 | 2.0 | 0.00 | 0.17 | 0.00 | 96 | 1009.6 |
| 20260503042005 | 52 | 287 | 0.0 | 2.0 | 0.00 | 0.17 | 0.00 | 96 | 1009.6 |
| 20260503040005 | 52 | 287 | 0.0 | 2.0 | 0.00 | 0.17 | 0.00 | 96 | 1009.6 |
| 20260503035004 | 52 | 287 | 0.0 | 3.0 | 0.00 | 0.17 | 0.00 | 96 | 1009.6 |
| 20260503034005 | 52 | 286 | 1.0 | 2.0 | 0.00 | 0.17 | 0.00 | 96 | 1009.7 |
| 20260503033005 | 52 | 286 | 0.0 | 1.0 | 0.00 | 0.17 | 0.00 | 96 | 1009.7 |
| 20260503031005 | 52 | 286 | 0.0 | 2.0 | 0.00 | 0.17 | 0.00 | 96 | 1009.8 |
| 20260503025005 | 52 | 286 | 0.0 | 2.0 | 0.00 | 0.17 | 0.00 | 96 | 1009.7 |
| 20260503023005 | 52 | 286 | 1.0 | 3.0 | 0.00 | 0.17 | 0.00 | 96 | 1009.7 |
| 20260503022005 | 52 | 286 | 1.0 | 2.0 | 0.00 | 0.17 | 0.00 | 96 | 1009.7 |
| 20260503020005 | 53 | 286 | 0.0 | 2.0 | 0.00 | 0.17 | 0.00 | 96 | 1009.8 |
| 20260503015005 | 53 | 286 | 0.0 | 3.0 | 0.00 | 0.17 | 0.00 | 96 | 1009.9 |
| 20260503014005 | 53 | 281 | 0.0 | 3.0 | 0.00 | 0.17 | 0.00 | 96 | 1009.9 |
| 20260503013005 | 53 | 281 | 0.0 | 1.0 | 0.00 | 0.17 | 0.00 | 96 | 1010.0 |
| 20260503012005 | 53 | 281 | 0.0 | 1.0 | 0.00 | 0.17 | 0.00 | 96 | 1010.1 |
| 20260503011005 | 53 | 281 | 0.0 | 1.0 | 0.00 | 0.17 | 0.00 | 96 | 1010.1 |
| 20260503010005 | 53 | 281 | 0.0 | 3.0 | 0.00 | 0.17 | 0.00 | 96 | 1010.3 |
| 20260503005005 | 53 | 275 | 1.0 | 2.0 | 0.00 | 0.17 | 0.00 | 96 | 1010.1 |
| 20260503003007 | 53 | 302 | 1.0 | 3.0 | 0.00 | 0.17 | 0.00 | 97 | 1010.5 |
| 20260503002005 | 53 | 276 | 0.0 | 3.0 | 0.00 | 0.17 | 0.00 | 97 | 1010.7 |
| 20260503001005 | 52 | 285 | 1.0 | 3.0 | 0.00 | 0.17 | 0.00 | 97 | 1010.7 |
| 20260502235005 | 52 | 270 | 1.0 | 2.0 | 0.00 | 0.17 | 0.00 | 96 | 1010.7 |
| 20260502234005 | 51 | 267 | 0.0 | 1.0 | 0.00 | 0.17 | 0.00 | 96 | 1010.8 |
| 20260502233005 | 51 | 266 | 0.0 | 2.0 | 0.00 | 0.17 | 0.00 | 95 | 1010.9 |